HIM774 VNKT-ZULS

Flight info

Callsign HIM774
Flight time N/A
Altitude 37100
Route IGRI1D KIMTI B345 LXA
Aircraft A319/M-SDE3FGHIRWY/LB1

Departure

Time 2026-05-06 06:15
Airport Tribhuvan International Airport (VNKT)

Arrival

Time N/A
Airport Lhasa Gonggar International Airport (ZULS)
Time Latitude Longitude Altitude Speed Heading
2026-05-06 06:02 27.69885 85.35778 4371 ft 0 kts 292°
2026-05-06 06:05 27.69884 85.35778 4371 ft 0 kts 292°
2026-05-06 06:09 27.69883 85.35783 4371 ft 3 kts 292°
2026-05-06 06:09 27.69873 85.35811 4358 ft 4 kts 292°
2026-05-06 06:09 27.69863 85.35840 4366 ft 4 kts 292°
2026-05-06 06:10 27.69855 85.35862 4363 ft 4 kts 267°
2026-05-06 06:10 27.69865 85.35886 4366 ft 4 kts 216°
2026-05-06 06:10 27.69882 85.35897 4368 ft 0 kts 203°
2026-05-06 06:11 27.69880 85.35896 4359 ft 2 kts 203°
2026-05-06 06:12 27.69840 85.35877 4364 ft 10 kts 202°
2026-05-06 06:12 27.69757 85.35839 4353 ft 15 kts 202°
2026-05-06 06:12 27.69653 85.35792 4361 ft 18 kts 203°
2026-05-06 06:12 27.69530 85.35735 4363 ft 20 kts 202°
2026-05-06 06:13 27.69389 85.35671 4346 ft 23 kts 202°
2026-05-06 06:13 27.69236 85.35602 4349 ft 22 kts 202°
2026-05-06 06:13 27.69107 85.35552 4345 ft 16 kts 176°
2026-05-06 06:13 27.69070 85.35645 4350 ft 12 kts 49°
2026-05-06 06:14 27.69117 85.35668 4350 ft 6 kts 21°
2026-05-06 06:14 27.69297 85.35750 4349 ft 62 kts 22°
2026-05-06 06:14 27.69902 85.36023 4367 ft 123 kts 22°
2026-05-06 06:14 27.70843 85.36456 4479 ft 161 kts 23°
2026-05-06 06:15 27.71829 85.36940 5181 ft 154 kts 25°
2026-05-06 06:15 27.72756 85.37568 5724 ft 156 kts 41°
2026-05-06 06:15 27.73493 85.38480 6317 ft 162 kts 58°
2026-05-06 06:15 27.73966 85.39716 6614 ft 183 kts 78°
2026-05-06 06:16 27.74055 85.41234 6858 ft 206 kts 91°
2026-05-06 06:16 27.74027 85.42944 7066 ft 230 kts 96°
2026-05-06 06:16 27.73515 85.44718 7580 ft 245 kts 121°
2026-05-06 06:16 27.72386 85.46170 8393 ft 249 kts 144°
2026-05-06 06:17 27.70847 85.47086 9195 ft 256 kts 158°
2026-05-06 06:17 27.69132 85.47908 9623 ft 280 kts 156°
2026-05-06 06:17 27.67436 85.49058 10221 ft 291 kts 137°
2026-05-06 06:17 27.66231 85.50982 10520 ft 315 kts 110°
2026-05-06 06:18 27.65671 85.53434 11112 ft 328 kts 103°
2026-05-06 06:18 27.65159 85.55928 11916 ft 333 kts 103°
2026-05-06 06:18 27.64617 85.58497 12743 ft 339 kts 104°
2026-05-06 06:18 27.64054 85.61107 13525 ft 345 kts 104°
2026-05-06 06:19 27.63475 85.63756 14257 ft 350 kts 105°
2026-05-06 06:19 27.62884 85.66447 14943 ft 356 kts 105°
2026-05-06 06:19 27.62287 85.69172 15635 ft 361 kts 105°
2026-05-06 06:19 27.61688 85.71947 16294 ft 366 kts 105°
2026-05-06 06:20 27.61081 85.74753 17008 ft 371 kts 105°
2026-05-06 06:20 27.60464 85.77593 17698 ft 376 kts 105°
2026-05-06 06:20 27.59839 85.80474 18380 ft 381 kts 105°
2026-05-06 06:20 27.59205 85.83393 18967 ft 386 kts 106°
2026-05-06 06:21 27.58556 85.86355 19538 ft 391 kts 106°
2026-05-06 06:21 27.57899 85.89349 20122 ft 396 kts 106°
2026-05-06 06:21 27.57233 85.92383 20700 ft 401 kts 106°
2026-05-06 06:21 27.56560 85.95455 21269 ft 406 kts 107°
2026-05-06 06:22 27.55891 85.98523 21816 ft 411 kts 107°
2026-05-06 06:22 27.55201 86.01678 22315 ft 417 kts 107°
2026-05-06 06:22 27.54500 86.04870 22860 ft 421 kts 107°
2026-05-06 06:22 27.53789 86.08095 23334 ft 426 kts 107°
2026-05-06 06:23 27.53069 86.11349 23838 ft 431 kts 107°
2026-05-06 06:23 27.52341 86.14653 24302 ft 436 kts 107°
2026-05-06 06:23 27.51608 86.17984 24767 ft 440 kts 107°
2026-05-06 06:23 27.50869 86.21341 25305 ft 443 kts 108°
2026-05-06 06:24 27.50122 86.24715 25790 ft 446 kts 108°
2026-05-06 06:24 27.49369 86.28128 26315 ft 450 kts 107°
2026-05-06 06:24 27.48662 86.31579 26835 ft 454 kts 106°
2026-05-06 06:24 27.47994 86.35079 27342 ft 459 kts 105°
2026-05-06 06:25 27.47342 86.38617 27740 ft 463 kts 105°
2026-05-06 06:25 27.46687 86.42180 28140 ft 467 kts 105°
2026-05-06 06:25 27.45342 86.49394 29021 ft 474 kts 106°
2026-05-06 06:26 27.44645 86.53032 29430 ft 477 kts 106°
2026-05-06 06:26 27.43939 86.56690 29841 ft 480 kts 106°
2026-05-06 06:26 27.43220 86.60377 30100 ft 485 kts 106°
2026-05-06 06:26 27.42489 86.64107 30393 ft 490 kts 107°
2026-05-06 06:27 27.41765 86.67821 30682 ft 495 kts 106°
2026-05-06 06:27 27.41030 86.71616 31016 ft 498 kts 107°
2026-05-06 06:27 27.40292 86.75433 31350 ft 501 kts 106°
2026-05-06 06:27 27.39545 86.79282 31663 ft 505 kts 107°
2026-05-06 06:28 27.38792 86.83152 32033 ft 507 kts 107°
2026-05-06 06:28 27.38037 86.87022 32471 ft 508 kts 106°
2026-05-06 06:28 27.37279 86.90909 32949 ft 508 kts 107°
2026-05-06 06:28 27.36518 86.94789 33353 ft 508 kts 107°
2026-05-06 06:29 27.35753 86.98671 33684 ft 510 kts 107°
2026-05-06 06:29 27.34982 87.02570 34040 ft 511 kts 108°
2026-05-06 06:29 27.34223 87.06480 34344 ft 514 kts 105°
2026-05-06 06:29 27.33995 87.10523 34691 ft 522 kts 88°
2026-05-06 06:30 27.34659 87.14545 35034 ft 525 kts 71°
2026-05-06 06:30 27.36187 87.18258 35369 ft 522 kts 54°
2026-05-06 06:30 27.38463 87.21388 35774 ft 514 kts 38°
2026-05-06 06:30 27.41283 87.23777 36174 ft 502 kts 23°
2026-05-06 06:31 27.44411 87.25412 36527 ft 493 kts 15°
2026-05-06 06:31 27.47586 87.26882 36925 ft 493 kts 15°
2026-05-06 06:31 27.50768 87.28340 37202 ft 492 kts 15°
2026-05-06 06:32 27.57064 87.31209 37319 ft 485 kts 15°
2026-05-06 06:32 27.63306 87.34068 37313 ft 483 kts 16°
2026-05-06 06:33 27.69481 87.36918 37349 ft 482 kts 16°
2026-05-06 06:33 27.75689 87.39800 37367 ft 481 kts 16°
2026-05-06 06:34 27.81798 87.42886 37330 ft 485 kts 25°
2026-05-06 06:34 27.84594 87.45074 37336 ft 493 kts 36°
2026-05-06 06:34 27.87094 87.47759 37347 ft 498 kts 43°
2026-05-06 06:35 27.91882 87.53444 37341 ft 499 kts 43°
2026-05-06 06:35 27.96670 87.59113 37301 ft 498 kts 43°
2026-05-06 06:36 28.00649 87.63821 37293 ft 498 kts 43°
2026-05-06 06:36 28.05439 87.69503 37294 ft 499 kts 43°
2026-05-06 06:37 28.10220 87.75198 37240 ft 499 kts 43°
2026-05-06 06:37 28.15000 87.80899 37235 ft 499 kts 43°
2026-05-06 06:38 28.19781 87.86603 37206 ft 499 kts 43°
2026-05-06 06:38 28.24559 87.92307 37214 ft 499 kts 43°
2026-05-06 06:39 28.29328 87.98008 37202 ft 498 kts 43°
2026-05-06 06:39 28.34064 88.03679 37127 ft 498 kts 43°
2026-05-06 06:40 28.38827 88.09393 37141 ft 498 kts 43°
2026-05-06 06:40 28.43591 88.15124 37093 ft 499 kts 43°
2026-05-06 06:41 28.48367 88.20862 37088 ft 500 kts 43°
2026-05-06 06:41 28.53145 88.26610 37094 ft 500 kts 43°
2026-05-06 06:42 28.57936 88.32387 37091 ft 501 kts 43°
2026-05-06 06:42 28.62719 88.38170 37096 ft 502 kts 43°
2026-05-06 06:43 28.67495 88.43956 37094 ft 501 kts 44°
2026-05-06 06:43 28.72266 88.49748 37058 ft 500 kts 44°
2026-05-06 06:44 28.77009 88.55493 37066 ft 501 kts 44°
2026-05-06 06:44 28.81785 88.61289 37046 ft 501 kts 44°
2026-05-06 06:45 28.86552 88.67085 37042 ft 500 kts 44°
2026-05-06 06:45 28.91308 88.72884 36998 ft 500 kts 44°
2026-05-06 06:46 28.96063 88.78695 37026 ft 499 kts 44°
2026-05-06 06:46 29.00781 88.84462 37009 ft 500 kts 44°
2026-05-06 06:47 29.05535 88.90273 36955 ft 500 kts 44°
2026-05-06 06:47 29.10291 88.96102 36945 ft 501 kts 44°
2026-05-06 06:48 29.15034 89.01930 36926 ft 500 kts 44°
2026-05-06 06:48 29.19777 89.07762 36924 ft 501 kts 44°
2026-05-06 06:49 29.24528 89.13611 36919 ft 501 kts 44°
2026-05-06 06:49 29.29265 89.19456 36942 ft 500 kts 44°
2026-05-06 06:50 29.33201 89.25978 36941 ft 504 kts 65°
2026-05-06 06:50 29.34423 89.29733 36936 ft 503 kts 76°
2026-05-06 06:50 29.35093 89.33662 36939 ft 501 kts 86°
2026-05-06 06:51 29.35091 89.41580 36972 ft 496 kts 95°
2026-05-06 06:51 29.34872 89.49488 36972 ft 496 kts 95°
2026-05-06 06:52 29.34642 89.57384 36998 ft 496 kts 95°
2026-05-06 06:52 29.34405 89.65282 36994 ft 496 kts 95°
2026-05-06 06:52 29.34284 89.69237 36715 ft 499 kts 95°
2026-05-06 06:53 29.34163 89.73190 36480 ft 493 kts 95°
2026-05-06 06:53 29.34043 89.77108 36237 ft 490 kts 95°
2026-05-06 06:53 29.33924 89.80992 35986 ft 488 kts 95°
2026-05-06 06:53 29.33803 89.84893 35460 ft 491 kts 95°
2026-05-06 06:54 29.33682 89.88771 35222 ft 483 kts 95°
2026-05-06 06:54 29.33561 89.92596 34936 ft 478 kts 95°
2026-05-06 06:54 29.33441 89.96338 34599 ft 474 kts 95°
2026-05-06 06:54 29.33318 90.00095 34211 ft 470 kts 95°
2026-05-06 06:55 29.33194 90.03829 33849 ft 468 kts 95°
2026-05-06 06:55 29.33069 90.07544 33431 ft 464 kts 96°
2026-05-06 06:55 29.32943 90.11234 32633 ft 462 kts 95°
2026-05-06 06:55 29.32821 90.14894 32032 ft 457 kts 95°
2026-05-06 06:56 29.32612 90.18492 31453 ft 446 kts 102°
2026-05-06 06:56 29.31963 90.21908 30962 ft 433 kts 112°
2026-05-06 06:56 29.31066 90.25174 30466 ft 426 kts 111°
2026-05-06 06:56 29.30186 90.28395 29978 ft 420 kts 112°
2026-05-06 06:57 29.29321 90.31571 29370 ft 415 kts 112°
2026-05-06 06:57 29.28469 90.34701 28772 ft 408 kts 111°
2026-05-06 06:57 29.27623 90.37791 28099 ft 404 kts 112°
2026-05-06 06:57 29.26783 90.40848 27458 ft 400 kts 111°
2026-05-06 06:58 29.25955 90.43866 27045 ft 396 kts 111°
2026-05-06 06:58 29.25132 90.46864 26597 ft 393 kts 111°
2026-05-06 06:58 29.24315 90.49839 26152 ft 390 kts 112°
2026-05-06 06:58 29.23513 90.52761 25835 ft 379 kts 111°
2026-05-06 06:59 29.22732 90.55609 25465 ft 371 kts 111°
2026-05-06 06:59 29.21971 90.58369 25021 ft 366 kts 111°
2026-05-06 06:59 29.21203 90.61144 24422 ft 364 kts 111°
2026-05-06 06:59 29.20440 90.63896 23979 ft 362 kts 111°
2026-05-06 07:00 29.19682 90.66632 23537 ft 359 kts 111°
2026-05-06 07:00 29.18931 90.69341 23056 ft 355 kts 111°
2026-05-06 07:00 29.18189 90.72009 22653 ft 349 kts 111°
2026-05-06 07:00 29.17452 90.74653 22573 ft 350 kts 111°
2026-05-06 07:01 29.16711 90.77306 22388 ft 351 kts 112°
2026-05-06 07:01 29.16199 90.80077 21883 ft 364 kts 96°
2026-05-06 07:01 29.16327 90.82959 21636 ft 360 kts 82°
2026-05-06 07:01 29.16995 90.85669 21488 ft 348 kts 69°
2026-05-06 07:02 29.18102 90.88066 21308 ft 335 kts 55°
2026-05-06 07:02 29.19577 90.90090 20887 ft 328 kts 41°
2026-05-06 07:02 29.21372 90.91657 20412 ft 324 kts 28°
2026-05-06 07:02 29.23436 90.92774 19651 ft 334 kts 15°
2026-05-06 07:03 29.25694 90.93480 19059 ft 338 kts 12°
2026-05-06 07:03 29.27968 90.94054 18625 ft 331 kts
2026-05-06 07:03 29.30230 90.93933 18186 ft 322 kts 345°
2026-05-06 07:03 29.32296 90.93037 17621 ft 315 kts 325°
2026-05-06 07:04 29.33978 90.91485 17064 ft 308 kts 307°
2026-05-06 07:04 29.35313 90.89623 16719 ft 293 kts 306°
2026-05-06 07:04 29.36548 90.87904 16604 ft 266 kts 304°
2026-05-06 07:04 29.37335 90.86127 16318 ft 241 kts 278°
2026-05-06 07:05 29.37402 90.84335 16010 ft 217 kts 263°
2026-05-06 07:05 29.37284 90.82714 15760 ft 193 kts 260°
2026-05-06 07:05 29.37117 90.81266 15534 ft 174 kts 255°
2026-05-06 07:05 29.36910 90.79949 15332 ft 163 kts 252°
2026-05-06 07:06 29.36657 90.78691 15128 ft 162 kts 252°
2026-05-06 07:06 29.36333 90.77467 14940 ft 158 kts 241°
2026-05-06 07:06 29.35727 90.76416 14729 ft 159 kts 226°
2026-05-06 07:06 29.34843 90.75640 14570 ft 161 kts 208°
2026-05-06 07:07 29.33787 90.75245 14330 ft 160 kts 191°
2026-05-06 07:07 29.32662 90.75267 14157 ft 163 kts 175°
2026-05-06 07:07 29.31610 90.75721 13968 ft 163 kts 154°
2026-05-06 07:07 29.30732 90.76566 13739 ft 168 kts 134°
2026-05-06 07:08 29.30174 90.77757 13592 ft 173 kts 114°
2026-05-06 07:08 29.29962 90.79126 13365 ft 177 kts 99°
2026-05-06 07:08 29.29889 90.80544 13100 ft 181 kts 96°
2026-05-06 07:08 29.29896 90.81957 12807 ft 179 kts 93°
2026-05-06 07:09 29.29942 90.83397 12574 ft 178 kts 91°
2026-05-06 07:09 29.29941 90.84815 12304 ft 176 kts 99°
2026-05-06 07:09 29.29879 90.86186 12170 ft 175 kts 100°
2026-05-06 07:09 29.29801 90.87567 11850 ft 172 kts 100°
2026-05-06 07:10 29.29755 90.88928 11610 ft 171 kts 92°
2026-05-06 07:10 29.29802 90.90243 11490 ft 149 kts 91°
2026-05-06 07:10 29.29804 90.91162 11485 ft 74 kts 89°